[[{"header":{"parameterUnit":"m.s-1","parameterCategory":1,"la1":30.2992,"la2":30.254,"lo1":-89.0895,"lo2":-89.0443,"dy":0.0025,"dx":0.0025,"nx":19,"ny":19,"refTime":"2026-05-14T09:00:00:Z","depth":0,"parameterNumber":2,"parameterNumberName":"U-component_of_WINDS"},"data":[0,0,0,-0.506,-0.5058,-0.498,-0.4979,-0.4891,-0.489,0,0,0,0,0,0,0,0,0,0,0,-0.5092,-0.5092,-0.506,-0.5058,-0.498,-0.4979,-0.4891,-0.489,0,0,0,0,0,0,0,0,0,0,0,-0.5092,-0.5092,-0.5092,-0.5058,-0.498,-0.4979,-0.4891,-0.4945,0,0,0,0,0,0,0,0,0,0,-0.5019,-0.5059,-0.5092,-0.5092,-0.5058,-0.498,-0.4979,-0.4948,-0.4942,-0.4932,0,-0.4927,0,-0.4907,-0.4885,-0.4885,0,0,0,-0.5051,-0.5064,-0.5035,-0.5092,-0.5057,-0.498,-0.5013,-0.4944,-0.4938,-0.4924,-0.4926,-0.4922,-0.4906,-0.4884,-0.4884,-0.4854,-0.4855,0,0,-0.5055,-0.5083,-0.5039,-0.5031,-0.5046,-0.5016,-0.5011,-0.494,-0.4943,-0.4925,-0.492,-0.4904,-0.4884,-0.4883,-0.4854,-0.4854,0,0,0,-0.5072,-0.5086,-0.5058,-0.5035,-0.502,-0.5013,-0.5008,-0.4946,-0.4935,-0.4919,-0.4903,-0.4883,-0.4883,-0.4854,-0.4854,-0.4893,0,0,0,-0.5075,-0.5096,-0.506,-0.5077,-0.5022,-0.4983,-0.5016,-0.494,-0.4931,-0.4904,-0.4883,-0.4882,-0.4854,-0.4854,-0.4891,-0.4907,0,0,0,-0.5094,-0.5099,-0.5091,-0.5078,-0.5046,-0.4983,-0.4967,-0.4937,-0.4922,-0.4885,-0.4882,-0.4853,-0.4854,-0.489,-0.4904,-0.4907,0,0,0,-0.5123,-0.5126,-0.5092,-0.5089,-0.5047,-0.5008,-0.4968,-0.4937,-0.491,-0.4883,-0.4854,-0.4854,-0.4889,-0.4903,-0.4906,-0.4916,-0.4922,0,0,-0.5142,-0.5129,-0.5125,-0.5092,-0.5067,-0.5018,-0.4997,-0.4945,-0.4915,-0.4876,-0.4874,-0.4892,-0.4904,-0.4907,-0.4948,-0.4953,0,0,0,-0.5141,-0.5138,-0.5125,-0.5101,-0.5062,-0.5029,-0.4977,-0.4957,-0.4922,-0.4901,-0.4892,-0.4899,-0.4899,-0.4902,-0.4907,-0.4905,-0.4857,-0.4857,-0.4857,-0.5209,-0.5171,-0.5161,-0.5113,-0.509,-0.5036,-0.5012,-0.4976,-0.4944,-0.4942,-0.4931,-0.496,-0.4965,-0.4969,-0.4967,-0.4932,-0.4932,-0.4932,-0.4932,-0.5234,-0.5225,-0.5181,-0.5157,-0.5115,-0.5093,-0.5039,-0.5017,-0.4989,-0.4966,-0.4964,-0.4944,-0.4976,-0.4973,-0.4935,-0.4934,-0.4934,-0.4934,-0.4934,-0.5276,-0.5265,-0.5241,-0.5201,-0.5174,-0.5123,-0.5099,-0.5061,-0.5025,-0.5024,-0.5007,-0.5006,-0.5001,-0.5018,-0.5018,-0.5018,-0.5019,-0.5019,-0.5019,-0.5329,-0.5301,-0.5286,-0.5243,-0.5222,-0.5189,-0.5132,-0.5109,-0.5074,-0.5048,-0.5048,-0.5015,-0.4986,-0.498,-0.502,-0.502,-0.502,-0.502,-0.5019,-0.5371,-0.5355,-0.5332,-0.5311,-0.5256,-0.5231,-0.5183,-0.5139,-0.5114,-0.5103,-0.5069,-0.5054,-0.5037,-0.5033,-0.5028,-0.5078,-0.5078,-0.5078,-0.5078,-0.5407,-0.5394,-0.5362,-0.533,-0.5294,-0.5247,-0.522,-0.5174,-0.5125,-0.5106,-0.5093,-0.5082,-0.508,-0.5065,-0.506,-0.5055,-0.511,-0.511,-0.511,-0.543,-0.5412,-0.5398,-0.5351,-0.5305,-0.5265,-0.5237,-0.52,-0.514,-0.5111,-0.5091,-0.509,-0.5072,-0.5068,-0.504,-0.5034,-0.5023,0,0]},{"header":{"parameterUnit":"m.s-1","parameterCategory":1,"la1":30.2992,"la2":30.254,"lo1":-89.0895,"lo2":-89.0443,"dy":0.0025,"dx":0.0025,"nx":19,"ny":19,"refTime":"2026-05-14T09:00:00:Z","depth":0,"parameterNumber":3,"parameterNumberName":"V-component_of_WINDS"},"data":[0,0,0,-2.4156,-2.4154,-2.4064,-2.4064,-2.394,-2.3939,0,0,0,0,0,0,0,0,0,0,0,-2.4178,-2.4177,-2.4156,-2.4154,-2.4064,-2.4064,-2.3941,-2.3939,0,0,0,0,0,0,0,0,0,0,0,-2.4178,-2.4177,-2.4176,-2.4153,-2.4064,-2.4064,-2.3941,-2.4011,0,0,0,0,0,0,0,0,0,0,-2.41,-2.4116,-2.4177,-2.4176,-2.4153,-2.4064,-2.4064,-2.4015,-2.4007,-2.3978,0,-2.3951,0,-2.3943,-2.3931,-2.393,0,0,0,-2.4156,-2.4122,-2.4103,-2.4176,-2.4152,-2.4064,-2.4105,-2.4011,-2.4002,-2.3967,-2.3949,-2.3945,-2.3941,-2.393,-2.3929,-2.3755,-2.3754,0,0,-2.4161,-2.4159,-2.4109,-2.4097,-2.4111,-2.4108,-2.4102,-2.4005,-2.3985,-2.3949,-2.3942,-2.3939,-2.3929,-2.3928,-2.3756,-2.3755,0,0,0,-2.4174,-2.4162,-2.4145,-2.4101,-2.4086,-2.4105,-2.4099,-2.399,-2.3984,-2.3941,-2.3938,-2.3928,-2.3927,-2.3757,-2.3755,-2.3708,0,0,0,-2.4177,-2.4169,-2.4147,-2.4144,-2.4088,-2.4037,-2.4085,-2.3991,-2.398,-2.3939,-2.3928,-2.3925,-2.3758,-2.3756,-2.3711,-2.3685,0,0,0,-2.4185,-2.417,-2.4156,-2.4144,-2.4106,-2.4038,-2.4028,-2.3989,-2.3978,-2.393,-2.3925,-2.3758,-2.3756,-2.3714,-2.369,-2.364,0,0,0,-2.4193,-2.4112,-2.4155,-2.4064,-2.4107,-2.401,-2.4028,-2.3956,-2.3909,-2.3927,-2.3758,-2.3755,-2.3715,-2.3694,-2.3644,-2.3598,-2.3579,0,0,-2.409,-2.41,-2.4047,-2.4082,-2.3978,-2.4024,-2.3912,-2.387,-2.3867,-2.3792,-2.3788,-2.371,-2.3691,-2.3641,-2.347,-2.3455,0,0,0,-2.4013,-2.3975,-2.3948,-2.3905,-2.3873,-2.3843,-2.382,-2.3805,-2.3742,-2.3828,-2.3678,-2.3666,-2.3637,-2.3616,-2.3603,-2.3579,-2.3745,-2.3745,-2.3746,-2.3862,-2.3865,-2.3779,-2.3771,-2.3729,-2.3707,-2.3673,-2.3649,-2.3662,-2.3626,-2.3604,-2.3501,-2.3475,-2.3466,-2.3441,-2.358,-2.358,-2.358,-2.3579,-2.3713,-2.366,-2.3683,-2.3607,-2.3611,-2.3546,-2.3523,-2.3535,-2.3475,-2.3517,-2.3491,-2.3537,-2.3449,-2.3427,-2.3576,-2.3576,-2.3577,-2.3577,-2.3577,-2.3615,-2.3591,-2.3576,-2.3516,-2.3469,-2.3464,-2.3408,-2.3412,-2.3415,-2.339,-2.3369,-2.3369,-2.3372,-2.3379,-2.3379,-2.3379,-2.3378,-2.3378,-2.3378,-2.352,-2.3505,-2.3457,-2.342,-2.3394,-2.3361,-2.334,-2.3315,-2.3288,-2.3295,-2.3295,-2.3313,-2.344,-2.3472,-2.3372,-2.3373,-2.3374,-2.3375,-2.3375,-2.3368,-2.3404,-2.3331,-2.3306,-2.3263,-2.3218,-2.3225,-2.3174,-2.3153,-2.3126,-2.3149,-2.3242,-2.3252,-2.3262,-2.3289,-2.3148,-2.3148,-2.3148,-2.3148,-2.3286,-2.3293,-2.3221,-2.3181,-2.3142,-2.3143,-2.3061,-2.3045,-2.3033,-2.3021,-2.3042,-2.3078,-2.3088,-2.3092,-2.3106,-2.3132,-2.2953,-2.2953,-2.2953,-2.3194,-2.3198,-2.3127,-2.3119,-2.3087,-2.306,-2.2983,-2.2936,-2.293,-2.2945,-2.3012,-2.302,-2.3078,-2.3097,-2.3113,-2.3135,-2.3181,0,0]}]]